Time,TemperatureF,DewpointF,PressureIn,WindDirection,WindDirectionDegrees,WindSpeedMPH,WindSpeedGustMPH,Humidity,HourlyPrecipIn,Conditions,Clouds,dailyrainin,SolarRadiationWatts/m^2,SoftwareType,DateUTC
2013-11-14 00:03:00,23.0,20.0,-100.00,SSW,207,0.0,2.0,87,0.00,,,0.00,0.000000,,2013-11-14 05:03:00,
2013-11-14 00:44:00,22.0,20.0,-100.00,South,180,0.0,3.0,90,0.00,,,0.00,0.000000,,2013-11-14 05:44:00,
2013-11-14 00:53:00,22.0,20.0,-100.00,South,180,0.0,3.0,90,0.00,,,0.00,0.000000,,2013-11-14 05:53:00,
2013-11-14 01:03:00,22.0,20.0,-100.00,South,180,0.0,3.0,90,0.00,,,0.00,0.000000,,2013-11-14 06:03:00,
2013-11-14 01:42:00,22.0,20.0,-100.00,ENE,67,0.0,2.0,90,0.00,,,0.00,0.000000,,2013-11-14 06:42:00,
2013-11-14 01:52:00,22.0,20.0,-100.00,ENE,67,0.0,2.0,90,0.00,,,0.00,0.000000,,2013-11-14 06:52:00,
2013-11-14 02:02:00,22.0,20.0,-100.00,ENE,67,0.0,2.0,90,0.00,,,0.00,0.000000,,2013-11-14 07:02:00,
2013-11-14 02:42:00,21.0,19.0,-100.00,ESE,115,0.0,3.0,91,0.00,,,0.00,0.000000,,2013-11-14 07:42:00,
2013-11-14 02:53:00,21.0,19.0,-100.00,ESE,115,0.0,3.0,91,0.00,,,0.00,0.000000,,2013-11-14 07:53:00,
2013-11-14 03:01:00,21.0,19.0,-100.00,ESE,115,0.0,3.0,91,0.00,,,0.00,0.000000,,2013-11-14 08:01:00,
2013-11-14 03:42:00,20.0,18.0,-100.00,East,81,0.0,2.0,93,0.00,,,0.00,0.000000,,2013-11-14 08:42:00,
2013-11-14 03:53:00,20.0,18.0,-100.00,East,81,0.0,2.0,93,0.00,,,0.00,0.000000,,2013-11-14 08:53:00,
2013-11-14 04:02:00,20.0,18.0,-100.00,East,81,0.0,2.0,93,0.00,,,0.00,0.000000,,2013-11-14 09:02:00,
2013-11-14 04:43:00,19.0,17.0,-100.00,ESE,120,0.0,2.0,92,0.00,,,0.00,0.000000,,2013-11-14 09:43:00,
2013-11-14 04:53:00,19.0,17.0,-100.00,ESE,120,0.0,2.0,92,0.00,,,0.00,0.000000,,2013-11-14 09:53:00,
2013-11-14 05:03:00,19.0,17.0,-100.00,ESE,120,0.0,2.0,92,0.00,,,0.00,0.000000,,2013-11-14 10:03:00,
2013-11-14 05:43:00,18.0,16.0,-100.00,South,180,0.0,2.0,91,0.00,,,0.00,0.000000,,2013-11-14 10:43:00,
2013-11-14 05:52:00,18.0,16.0,-100.00,South,180,0.0,2.0,91,0.00,,,0.00,0.000000,,2013-11-14 10:52:00,
2013-11-14 06:02:00,18.0,16.0,-100.00,South,180,0.0,2.0,91,0.00,,,0.00,0.000000,,2013-11-14 11:02:00,
2013-11-14 06:42:00,18.0,16.0,-100.00,South,175,0.0,2.0,92,0.00,,,0.00,0.000000,,2013-11-14 11:42:00,
2013-11-14 06:52:00,18.0,16.0,-100.00,South,175,0.0,2.0,92,0.00,,,0.00,0.000000,,2013-11-14 11:52:00,
2013-11-14 07:02:00,18.0,16.0,-100.00,South,175,0.0,2.0,92,0.00,,,0.00,0.000000,,2013-11-14 12:02:00,
2013-11-14 07:42:00,18.0,16.0,-100.00,South,176,0.0,2.0,93,0.00,,,-99.99,0.000000,,2013-11-14 12:42:00,
2013-11-14 07:52:00,18.0,16.0,-100.00,South,176,0.0,2.0,93,0.00,,,-99.99,0.000000,,2013-11-14 12:52:00,
2013-11-14 08:02:00,18.0,16.0,-100.00,South,176,0.0,2.0,93,0.00,,,-99.99,0.000000,,2013-11-14 13:02:00,
2013-11-14 08:42:00,19.0,17.0,-100.00,SSW,195,0.0,2.0,91,0.00,,,0.00,10.000000,,2013-11-14 13:42:00,
2013-11-14 08:52:00,19.0,17.0,-100.00,SSW,195,0.0,2.0,91,0.00,,,0.00,10.000000,,2013-11-14 13:52:00,
2013-11-14 09:02:00,19.0,17.0,-100.00,SSW,195,0.0,2.0,91,0.00,,,0.00,10.000000,,2013-11-14 14:02:00,
2013-11-14 09:42:00,30.0,26.0,-100.00,South,173,1.0,2.0,85,0.00,,,0.00,129.000000,,2013-11-14 14:42:00,
2013-11-14 09:52:00,30.0,26.0,-100.00,South,173,1.0,2.0,85,0.00,,,0.00,129.000000,,2013-11-14 14:52:00,
2013-11-14 10:02:00,30.0,26.0,-100.00,South,173,1.0,2.0,85,0.00,,,0.00,129.000000,,2013-11-14 15:02:00,
2013-11-14 10:43:00,38.0,28.0,-100.00,NW,321,1.0,4.0,68,0.00,,,0.00,319.000000,,2013-11-14 15:43:00,
2013-11-14 10:53:00,38.0,28.0,-100.00,NW,321,1.0,4.0,68,0.00,,,0.00,319.000000,,2013-11-14 15:53:00,
2013-11-14 11:03:00,38.0,28.0,-100.00,NW,321,1.0,4.0,68,0.00,,,0.00,319.000000,,2013-11-14 16:03:00,
2013-11-14 11:42:00,46.0,26.0,-100.00,WSW,244,1.0,5.0,45,0.00,,,0.00,446.000000,,2013-11-14 16:42:00,
2013-11-14 11:52:00,46.0,26.0,-100.00,WSW,244,1.0,5.0,45,0.00,,,0.00,446.000000,,2013-11-14 16:52:00,
2013-11-14 12:02:00,46.0,26.0,-100.00,WSW,244,1.0,5.0,45,0.00,,,0.00,446.000000,,2013-11-14 17:02:00,
2013-11-14 12:42:00,49.0,21.0,-100.00,SW,234,6.0,12.0,33,0.00,,,0.00,528.000000,,2013-11-14 17:42:00,
2013-11-14 12:52:00,49.0,21.0,-100.00,SW,234,6.0,12.0,33,0.00,,,0.00,528.000000,,2013-11-14 17:52:00,
2013-11-14 13:02:00,49.0,21.0,-100.00,SW,234,6.0,12.0,33,0.00,,,0.00,528.000000,,2013-11-14 18:02:00,
2013-11-14 13:42:00,54.0,22.0,-100.00,SW,221,3.0,11.0,28,0.00,,,0.00,555.000000,,2013-11-14 18:42:00,
2013-11-14 13:52:00,54.0,22.0,-100.00,SW,221,3.0,11.0,28,0.00,,,0.00,555.000000,,2013-11-14 18:52:00,
2013-11-14 14:01:00,54.0,22.0,-100.00,SW,221,3.0,11.0,28,0.00,,,0.00,555.000000,,2013-11-14 19:01:00,
2013-11-14 14:42:00,57.0,21.0,-100.00,SW,224,5.0,11.0,24,0.00,,,0.00,524.000000,,2013-11-14 19:42:00,
2013-11-14 14:52:00,57.0,21.0,-100.00,SW,224,5.0,11.0,24,0.00,,,0.00,524.000000,,2013-11-14 19:52:00,
2013-11-14 15:02:00,57.0,21.0,-100.00,SW,224,5.0,11.0,24,0.00,,,0.00,524.000000,,2013-11-14 20:02:00,
2013-11-14 15:42:00,57.0,19.0,-100.00,SW,215,4.0,10.0,22,0.00,,,0.00,439.000000,,2013-11-14 20:42:00,
2013-11-14 15:52:00,57.0,19.0,-100.00,SW,215,4.0,10.0,22,0.00,,,0.00,439.000000,,2013-11-14 20:52:00,
2013-11-14 16:02:00,57.0,19.0,-100.00,SW,215,4.0,10.0,22,0.00,,,0.00,439.000000,,2013-11-14 21:02:00,
2013-11-14 16:43:00,59.0,18.0,-100.00,SW,232,3.0,7.0,20,0.00,,,0.00,310.000000,,2013-11-14 21:43:00,
2013-11-14 16:53:00,59.0,18.0,-100.00,SW,232,3.0,7.0,20,0.00,,,0.00,310.000000,,2013-11-14 21:53:00,
2013-11-14 17:03:00,59.0,18.0,-100.00,SW,232,3.0,7.0,20,0.00,,,0.00,310.000000,,2013-11-14 22:03:00,
2013-11-14 17:43:00,56.0,21.0,-100.00,South,170,0.0,6.0,25,0.00,,,0.00,150.000000,,2013-11-14 22:43:00,
2013-11-14 17:53:00,56.0,21.0,-100.00,South,170,0.0,6.0,25,0.00,,,0.00,150.000000,,2013-11-14 22:53:00,
2013-11-14 18:02:00,56.0,21.0,-100.00,South,170,0.0,6.0,25,0.00,,,0.00,150.000000,,2013-11-14 23:02:00,
2013-11-14 22:54:00,27.0,22.0,-100.00,ENE,66,0.0,1.0,82,0.00,,,0.00,0.000000,,2013-11-15 03:54:00,
2013-11-14 23:04:00,27.0,22.0,-100.00,ENE,66,0.0,1.0,82,0.00,,,0.00,0.000000,,2013-11-15 04:04:00,
2013-11-14 23:43:00,26.0,22.0,-100.00,ESE,103,0.0,2.0,85,0.00,,,0.00,0.000000,,2013-11-15 04:43:00,
2013-11-14 23:53:00,26.0,22.0,-100.00,ESE,103,0.0,2.0,85,0.00,,,0.00,0.000000,,2013-11-15 04:53:00,